GFSFLT1_sfc_vis_132.txt.gz
Visibility
15.0 15.0 15.0 15.0 15.0 15.0 15.0 15.0 15.0 15.0 15.0 15.0 15.0 15.0 15.0 15.0 15.0 15.0 15.0 15.0 15.0 15.0 15.0 8.4 6.6 5.1 0.3 11.8 15.0 15.0 15.0 12.9
15.0 15.0 15.0 15.0 15.0 15.0 15.0 15.0 15.0 15.0 15.0 15.0 15.0 15.0 15.0 15.0 15.0 15.0 15.0 15.0 15.0 15.0 15.0 8.6 5.5 0.8 1.1 15.0 15.0 15.0 0.3 15.0
15.0 15.0 15.0 15.0 15.0 15.0 15.0 15.0 15.0 15.0 15.0 15.0 15.0 15.0 15.0 15.0 15.0 15.0 15.0 15.0 15.0 15.0 15.0 15.0 15.0 7.0 15.0 13.6 15.0 2.8 12.1 15.0
15.0 15.0 15.0 15.0 15.0 15.0 15.0 15.0 15.0 15.0 15.0 15.0 15.0 15.0 7.6 7.2 15.0 15.0 15.0 15.0 15.0 15.0 15.0 15.0 15.0 15.0 0.2 12.6 15.0 15.0 7.1 0.4
15.0 15.0 15.0 15.0 15.0 15.0 15.0 15.0 15.0 15.0 15.0 15.0 15.0 12.5 12.1 15.0 15.0 15.0 15.0 15.0 15.0 15.0 15.0 15.0 15.0 15.0 15.0 15.0 15.0 15.0 15.0 13.1
15.0 15.0 15.0 15.0 15.0 15.0 15.0 15.0 15.0 15.0 15.0 15.0 15.0 15.0 15.0 15.0 15.0 15.0 15.0 15.0 15.0 15.0 15.0 15.0 15.0 15.0 15.0 15.0 15.0 15.0 15.0 15.0
15.0 15.0 15.0 15.0 15.0 15.0 15.0 15.0 15.0 15.0 15.0 15.0 15.0 15.0 15.0 15.0 15.0 15.0 15.0 14.7 15.0 15.0 15.0 15.0 15.0 15.0 11.2 15.0 15.0 15.0 15.0 15.0
10.1 15.0 15.0 15.0 15.0 15.0 15.0 15.0 15.0 15.0 15.0 15.0 15.0 15.0 15.0 15.0 15.0 15.0 15.0 9.8 0.1 1.9 15.0 15.0 15.0 15.0 11.9 12.4 14.5 15.0 15.0 15.0
14.7 15.0 15.0 0.9 9.7 15.0 15.0 15.0 15.0 15.0 15.0 15.0 15.0 15.0 15.0 15.0 15.0 15.0 15.0 9.8 13.8 15.0 5.2 15.0 15.0 15.0 15.0 14.8 14.3 15.0 15.0 15.0
5.3 7.0 10.5 11.1 0.5 0.2 13.7 0.2 0.2 14.6 15.0 15.0 15.0 15.0 15.0 15.0 15.0 15.0 14.6 15.0 15.0 15.0 15.0 14.4 15.0 15.0 15.0 15.0 14.3 15.0 15.0 15.0
4.0 13.1 11.0 8.9 15.0 15.0 15.0 6.5 0.2 0.4 7.2 1.7 9.6 15.0 15.0 15.0 13.2 2.5 8.3 15.0 15.0 15.0 15.0 13.4 10.6 14.1 14.7 7.4 4.6 10.8 15.0 10.3
11.2 13.0 6.3 3.8 15.0 15.0 15.0 15.0 7.1 0.3 1.3 1.7 5.7 7.0 15.0 3.2 7.2 3.5 3.4 6.1 15.0 15.0 15.0 9.5 0.4 0.2 1.4 0.4 4.9 2.8 1.2 15.0
15.0 3.7 4.2 2.5 3.9 7.9 10.0 6.9 6.3 3.5 6.2 4.4 0.5 3.8 15.0 14.3 5.1 3.2 2.9 2.9 15.0 2.5 3.5 14.9 13.3 1.8 2.2 2.7 0.8 13.9 0.3 0.3
1.7 0.2 2.6 7.8 15.0 15.0 15.0 15.0 15.0 4.1 4.5 6.2 4.7 11.8 13.6 2.2 12.9 4.2 3.1 3.2 5.4 12.0 15.0 15.0 15.0 15.0 15.0 15.0 15.0 15.0 15.0 15.0
0.0 0.0 2.7 13.3 7.1 14.7 15.0 15.0 11.8 9.7 11.2 5.0 3.9 5.7 4.1 2.2 2.0 1.8 2.1 5.0 0.6 1.7 8.8 4.6 6.0 15.0 15.0 15.0 15.0 2.3 8.0 8.8
0.0 0.0 0.1 14.4 5.3 6.3 15.0 7.2 9.3 13.3 15.0 15.0 15.0 15.0 15.0 15.0 15.0 15.0 12.7 8.9 0.7 1.4 0.3 2.9 4.4 14.2 1.3 2.0 6.4 11.3 11.4 15.0
0.0 0.0 3.5 12.2 15.0 15.0 15.0 15.0 15.0 15.0 15.0 15.0 15.0 15.0 15.0 15.0 15.0 15.0 15.0 6.8 14.8 15.0 8.1 4.5 12.8 6.5 0.0 0.0 0.1 15.0 15.0 15.0
0.3 0.1 0.1 6.5 15.0 15.0 15.0 15.0 15.0 15.0 15.0 15.0 15.0 15.0 11.4 14.1 11.9 15.0 15.0 13.1 5.1 0.7 4.0 12.8 8.9 15.0 0.0 0.0 0.0 15.0 10.8 13.7
15.0 2.3 2.4 3.8 10.8 15.0 15.0 15.0 15.0 15.0 15.0 15.0 15.0 15.0 15.0 15.0 15.0 10.3 15.0 14.3 6.9 8.4 0.2 12.7 15.0 14.0 0.0 0.0 0.0 0.1 0.2 4.2

GFSFLT1_sfc_vis_135.txt.gz
Visibility
15.0 15.0 15.0 15.0 15.0 15.0 15.0 15.0 15.0 15.0 15.0 15.0 15.0 15.0 15.0 15.0 15.0 15.0 15.0 15.0 15.0 15.0 15.0 15.0 15.0 15.0 15.0 15.0 15.0 15.0 15.0 15.0
15.0 15.0 15.0 15.0 15.0 15.0 15.0 15.0 15.0 15.0 15.0 15.0 15.0 15.0 15.0 15.0 15.0 15.0 15.0 15.0 15.0 15.0 15.0 15.0 15.0 15.0 15.0 15.0 15.0 15.0 15.0 15.0
15.0 15.0 15.0 15.0 15.0 15.0 15.0 15.0 15.0 15.0 15.0 15.0 15.0 15.0 15.0 15.0 15.0 15.0 15.0 15.0 15.0 15.0 15.0 15.0 15.0 15.0 15.0 15.0 15.0 15.0 13.7 15.0
15.0 15.0 15.0 15.0 15.0 15.0 15.0 15.0 15.0 15.0 15.0 15.0 15.0 15.0 15.0 15.0 15.0 15.0 15.0 15.0 15.0 15.0 15.0 15.0 15.0 15.0 15.0 15.0 15.0 15.0 15.0 15.0
15.0 15.0 15.0 15.0 15.0 15.0 15.0 15.0 15.0 15.0 15.0 15.0 15.0 15.0 15.0 15.0 15.0 15.0 15.0 15.0 15.0 15.0 15.0 15.0 15.0 15.0 15.0 15.0 15.0 15.0 15.0 15.0
15.0 15.0 15.0 15.0 15.0 15.0 15.0 15.0 15.0 15.0 15.0 15.0 15.0 15.0 15.0 15.0 15.0 15.0 15.0 15.0 15.0 15.0 15.0 15.0 15.0 15.0 15.0 15.0 15.0 15.0 15.0 15.0
2.1 7.0 14.4 15.0 15.0 15.0 15.0 15.0 15.0 15.0 15.0 15.0 15.0 15.0 15.0 15.0 15.0 15.0 15.0 15.0 15.0 15.0 15.0 15.0 15.0 15.0 15.0 15.0 15.0 15.0 15.0 15.0
3.9 15.0 15.0 15.0 15.0 15.0 15.0 15.0 15.0 15.0 15.0 15.0 15.0 15.0 15.0 15.0 15.0 15.0 15.0 15.0 13.0 15.0 15.0 15.0 15.0 15.0 15.0 15.0 15.0 15.0 15.0 15.0
5.0 15.0 14.7 4.6 12.5 15.0 15.0 15.0 15.0 15.0 15.0 15.0 15.0 15.0 15.0 15.0 15.0 15.0 15.0 15.0 15.0 15.0 15.0 15.0 15.0 15.0 15.0 15.0 12.1 14.4 15.0 15.0
7.3 14.7 15.0 6.6 14.6 15.0 0.4 15.0 15.0 15.0 15.0 15.0 15.0 15.0 15.0 15.0 15.0 15.0 15.0 15.0 15.0 15.0 13.7 15.0 15.0 15.0 15.0 15.0 15.0 15.0 15.0 15.0
0.1 2.3 3.0 15.0 8.4 15.0 15.0 15.0 12.3 6.4 15.0 14.2 15.0 15.0 15.0 15.0 15.0 15.0 15.0 15.0 15.0 15.0 14.8 15.0 15.0 15.0 15.0 15.0 15.0 15.0 15.0 13.3
0.0 0.1 2.1 14.8 12.7 13.4 11.0 14.8 11.0 15.0 14.8 10.4 15.0 14.9 13.6 13.0 13.7 15.0 15.0 15.0 7.5 15.0 10.9 8.6 15.0 10.7 9.4 15.0 15.0 14.4 11.9 13.8
0.0 1.0 1.1 2.8 6.8 7.1 13.0 15.0 15.0 15.0 15.0 15.0 0.7 14.2 11.6 4.7 3.0 15.0 2.9 9.1 11.2 3.5 5.9 2.9 14.7 15.0 15.0 0.5 0.1 7.3 9.6 0.4
0.1 0.1 1.0 0.0 1.1 6.5 12.0 15.0 15.0 15.0 15.0 15.0 6.9 13.5 5.7 1.4 0.7 14.2 15.0 15.0 13.4 0.5 10.2 1.6 5.2 2.9 6.2 15.0 15.0 11.9 14.5 10.4
0.3 1.2 0.2 0.0 0.1 6.1 15.0 15.0 15.0 15.0 15.0 9.0 10.7 4.8 9.8 3.8 13.8 1.3 0.3 9.6 0.4 1.1 1.8 4.2 1.6 4.1 4.6 8.8 15.0 15.0 15.0 15.0
0.3 0.1 0.2 0.1 0.1 3.1 13.3 15.0 13.3 6.1 3.6 1.8 6.3 6.1 3.8 3.2 3.4 8.2 9.4 0.1 0.2 0.5 0.4 1.3 3.6 3.9 4.8 12.1 15.0 15.0 15.0 4.6
14.2 0.1 0.1 0.1 3.4 4.7 4.5 5.2 4.6 4.1 4.4 14.4 15.0 8.3 6.9 5.0 7.5 14.8 15.0 15.0 0.6 0.1 0.1 0.1 0.1 0.1 0.0 0.0 0.2 15.0 15.0 0.7
15.0 1.3 0.1 0.5 4.5 7.5 15.0 15.0 15.0 15.0 14.8 13.1 15.0 15.0 15.0 15.0 15.0 15.0 10.9 4.7 4.9 1.0 0.5 3.5 0.2 5.2 0.1 0.1 0.1 14.1 15.0 15.0
15.0 12.5 6.0 9.9 4.0 9.9 15.0 15.0 15.0 15.0 15.0 15.0 15.0 15.0 14.9 14.1 12.9 10.1 15.0 15.0 15.0 10.9 8.2 8.8 2.5 0.2 0.1 0.0 0.0 15.0 15.0 15.0

GFSFLT1_sfc_vis_138.txt.gz
Visibility
15.0 15.0 15.0 15.0 15.0 15.0 15.0 15.0 15.0 15.0 15.0 15.0 15.0 15.0 15.0 15.0 15.0 15.0 15.0 15.0 15.0 15.0 15.0 15.0 15.0 15.0 15.0 15.0 15.0 15.0 15.0 15.0
15.0 15.0 15.0 15.0 15.0 15.0 15.0 15.0 15.0 15.0 15.0 15.0 15.0 15.0 15.0 15.0 15.0 15.0 15.0 15.0 15.0 15.0 15.0 15.0 15.0 15.0 15.0 15.0 15.0 15.0 15.0 15.0
15.0 15.0 15.0 15.0 15.0 15.0 15.0 15.0 15.0 15.0 15.0 15.0 15.0 15.0 15.0 15.0 15.0 15.0 15.0 15.0 15.0 15.0 15.0 15.0 15.0 15.0 15.0 15.0 15.0 15.0 15.0 15.0
15.0 15.0 15.0 15.0 15.0 15.0 15.0 15.0 15.0 15.0 15.0 15.0 15.0 15.0 15.0 15.0 15.0 15.0 15.0 15.0 15.0 15.0 15.0 15.0 15.0 15.0 15.0 15.0 15.0 15.0 15.0 15.0
15.0 15.0 15.0 15.0 15.0 15.0 15.0 15.0 15.0 15.0 15.0 15.0 15.0 15.0 15.0 15.0 15.0 15.0 15.0 15.0 15.0 15.0 15.0 15.0 15.0 15.0 15.0 15.0 15.0 15.0 15.0 15.0
14.9 15.0 15.0 15.0 15.0 15.0 15.0 15.0 15.0 15.0 15.0 15.0 15.0 15.0 15.0 15.0 15.0 15.0 15.0 15.0 15.0 15.0 15.0 15.0 15.0 15.0 15.0 15.0 15.0 15.0 15.0 15.0
15.0 15.0 15.0 15.0 15.0 15.0 15.0 15.0 15.0 15.0 15.0 15.0 15.0 15.0 15.0 15.0 6.7 15.0 15.0 15.0 15.0 15.0 15.0 15.0 15.0 15.0 15.0 15.0 15.0 15.0 15.0 15.0
15.0 15.0 5.1 15.0 11.4 15.0 15.0 15.0 15.0 15.0 15.0 15.0 15.0 15.0 15.0 15.0 15.0 15.0 15.0 15.0 15.0 15.0 15.0 15.0 15.0 15.0 15.0 15.0 15.0 15.0 15.0 15.0
15.0 12.6 0.1 10.6 4.4 14.8 15.0 15.0 15.0 15.0 15.0 15.0 15.0 15.0 15.0 15.0 15.0 15.0 15.0 15.0 15.0 15.0 15.0 15.0 15.0 15.0 15.0 15.0 15.0 15.0 15.0 15.0
15.0 8.9 1.8 13.4 13.1 3.9 4.5 15.0 15.0 15.0 15.0 15.0 15.0 15.0 15.0 15.0 15.0 15.0 15.0 15.0 15.0 15.0 15.0 15.0 15.0 15.0 15.0 15.0 15.0 15.0 15.0 15.0
8.9 14.5 1.1 15.0 6.0 4.8 15.0 15.0 15.0 15.0 15.0 15.0 15.0 15.0 15.0 15.0 15.0 15.0 15.0 15.0 15.0 15.0 15.0 15.0 15.0 15.0 15.0 15.0 15.0 15.0 15.0 15.0
0.1 0.1 1.0 12.7 13.3 14.2 11.9 12.9 11.7 15.0 14.7 15.0 2.8 3.2 6.2 15.0 15.0 15.0 15.0 15.0 15.0 15.0 15.0 15.0 15.0 15.0 6.1 4.2 3.5 15.0 15.0 15.0
14.8 4.9 0.2 3.0 10.4 9.4 15.0 14.8 11.3 3.9 15.0 15.0 15.0 15.0 15.0 14.5 15.0 11.7 9.8 10.9 15.0 15.0 15.0 8.9 15.0 11.0 6.1 14.3 2.7 2.5 15.0 15.0
14.0 1.0 0.2 2.9 1.8 1.8 8.8 15.0 8.5 7.7 15.0 15.0 15.0 15.0 10.8 15.0 7.5 12.4 12.7 15.0 14.4 15.0 15.0 15.0 14.1 14.9 15.0 15.0 5.0 3.8 3.5 12.9
15.0 0.8 0.3 0.3 0.1 0.0 1.3 13.0 14.6 13.3 15.0 13.6 15.0 15.0 3.1 4.5 3.7 5.0 15.0 8.5 6.8 15.0 15.0 15.0 10.7 15.0 15.0 4.4 9.5 5.7 13.0 8.6
8.0 1.2 0.1 0.1 0.1 0.1 0.0 11.4 15.0 15.0 15.0 15.0 8.5 6.1 15.0 11.2 7.7 4.9 9.7 9.1 4.7 8.7 15.0 15.0 8.2 15.0 15.0 12.0 3.4 7.8 11.9 8.4
12.4 14.5 1.1 0.4 0.6 6.9 3.6 0.2 12.0 15.0 14.8 14.9 15.0 15.0 15.0 15.0 15.0 6.8 4.9 14.9 15.0 0.2 0.3 0.2 0.8 5.8 0.0 0.0 0.1 3.0 12.1 4.7
15.0 15.0 11.5 9.9 4.3 4.5 5.9 10.8 7.0 4.5 0.8 2.0 6.8 10.7 4.4 7.9 4.1 7.6 12.3 3.5 10.8 15.0 5.3 0.2 0.1 0.3 0.1 0.1 0.1 4.0 3.4 6.5
15.0 15.0 15.0 15.0 15.0 11.3 6.1 15.0 15.0 15.0 15.0 14.6 4.7 10.0 11.4 10.8 6.3 4.7 8.1 5.1 1.6 11.5 15.0 1.0 0.3 5.0 1.7 0.3 0.1 2.3 2.7 5.1

GFSFLT1_sfc_vis_141.txt.gz
Visibility
15.0 15.0 15.0 15.0 15.0 15.0 15.0 15.0 15.0 15.0 15.0 15.0 15.0 4.9 15.0 15.0 15.0 15.0 15.0 15.0 15.0 15.0 15.0 15.0 15.0 15.0 15.0 15.0 15.0 15.0 15.0 15.0
15.0 15.0 15.0 15.0 15.0 15.0 15.0 15.0 15.0 15.0 15.0 15.0 15.0 15.0 3.8 2.9 15.0 15.0 15.0 15.0 15.0 15.0 15.0 15.0 15.0 15.0 15.0 15.0 15.0 15.0 15.0 15.0
15.0 15.0 15.0 15.0 15.0 15.0 15.0 15.0 15.0 15.0 15.0 15.0 15.0 15.0 15.0 10.5 15.0 15.0 15.0 15.0 15.0 15.0 15.0 15.0 15.0 15.0 15.0 15.0 15.0 15.0 15.0 15.0
15.0 15.0 15.0 15.0 15.0 15.0 15.0 15.0 15.0 15.0 15.0 15.0 15.0 15.0 15.0 5.7 2.7 2.8 15.0 15.0 15.0 15.0 15.0 15.0 15.0 15.0 15.0 15.0 15.0 15.0 15.0 15.0
15.0 15.0 15.0 15.0 15.0 15.0 15.0 15.0 15.0 15.0 15.0 15.0 15.0 15.0 15.0 15.0 11.8 2.4 15.0 15.0 15.0 15.0 15.0 15.0 15.0 15.0 15.0 15.0 15.0 15.0 15.0 15.0
15.0 15.0 15.0 15.0 15.0 15.0 15.0 15.0 15.0 15.0 15.0 15.0 15.0 15.0 15.0 15.0 15.0 2.9 2.1 15.0 15.0 15.0 15.0 15.0 15.0 15.0 15.0 15.0 15.0 15.0 15.0 15.0
15.0 15.0 15.0 15.0 15.0 15.0 15.0 15.0 15.0 15.0 15.0 15.0 15.0 15.0 15.0 15.0 15.0 15.0 1.8 6.0 15.0 15.0 15.0 15.0 15.0 15.0 15.0 15.0 15.0 15.0 15.0 15.0
15.0 15.0 15.0 15.0 15.0 15.0 15.0 15.0 15.0 15.0 15.0 15.0 15.0 15.0 15.0 15.0 15.0 15.0 9.7 2.5 9.1 15.0 15.0 15.0 15.0 15.0 15.0 15.0 15.0 15.0 15.0 15.0
15.0 15.0 15.0 15.0 15.0 15.0 15.0 15.0 15.0 15.0 15.0 15.0 15.0 15.0 15.0 15.0 8.5 15.0 12.9 15.0 14.6 15.0 15.0 15.0 15.0 15.0 15.0 15.0 15.0 15.0 15.0 15.0
15.0 15.0 15.0 15.0 15.0 15.0 8.0 15.0 15.0 15.0 15.0 15.0 15.0 15.0 15.0 15.0 15.0 15.0 15.0 15.0 5.0 3.4 15.0 15.0 15.0 15.0 15.0 15.0 15.0 15.0 15.0 15.0
15.0 15.0 15.0 15.0 15.0 12.5 7.3 10.3 14.1 11.3 11.0 15.0 12.9 15.0 15.0 15.0 12.5 15.0 9.8 15.0 15.0 15.0 15.0 15.0 13.9 9.9 15.0 15.0 15.0 15.0 15.0 15.0
15.0 15.0 15.0 15.0 15.0 15.0 15.0 9.4 15.0 8.2 11.6 11.9 9.8 15.0 15.0 15.0 15.0 12.2 1.1 1.7 4.6 13.0 15.0 9.1 13.8 10.7 9.2 15.0 15.0 15.0 15.0 15.0
15.0 15.0 15.0 15.0 15.0 15.0 15.0 14.5 10.7 15.0 4.2 11.0 2.4 13.3 15.0 1.6 0.3 14.0 14.2 1.4 1.3 15.0 15.0 14.6 15.0 15.0 14.8 15.0 15.0 14.3 15.0 15.0
15.0 15.0 15.0 15.0 4.2 14.8 14.9 14.3 15.0 10.5 15.0 12.7 7.4 15.0 15.0 4.7 15.0 0.9 1.1 12.4 15.0 15.0 2.1 9.9 15.0 15.0 15.0 15.0 13.8 15.0 15.0 15.0
15.0 15.0 15.0 11.3 2.5 8.1 15.0 0.4 15.0 15.0 14.8 12.1 10.6 9.8 10.8 13.1 15.0 14.7 15.0 5.6 15.0 15.0 7.4 15.0 15.0 15.0 11.0 8.6 15.0 14.8 15.0 15.0
15.0 15.0 15.0 14.7 5.1 2.1 6.1 0.2 15.0 15.0 15.0 15.0 9.2 14.5 4.6 13.4 15.0 15.0 15.0 10.6 2.7 7.2 6.0 15.0 6.0 1.9 14.3 14.4 8.8 10.6 8.7 15.0
15.0 15.0 15.0 15.0 15.0 6.1 2.6 7.5 1.1 15.0 15.0 15.0 15.0 15.0 15.0 15.0 15.0 15.0 13.3 15.0 6.3 4.4 0.5 9.3 4.7 0.6 0.3 0.0 0.2 5.6 15.0 3.6
15.0 15.0 15.0 15.0 15.0 15.0 8.3 4.5 9.3 15.0 15.0 15.0 15.0 15.0 15.0 15.0 15.0 15.0 15.0 15.0 15.0 6.0 3.3 2.2 0.3 15.0 5.6 0.2 0.0 9.1 10.4 15.0
15.0 15.0 15.0 15.0 15.0 15.0 15.0 15.0 7.7 15.0 15.0 14.9 8.2 0.2 15.0 15.0 15.0 10.5 15.0 15.0 15.0 12.7 2.0 4.6 4.0 14.6 15.0 12.6 0.1 1.4 6.3 1.5

GFSFLT1_sfc_vis_144.txt.gz
Visibility
15.0 15.0 15.0 15.0 15.0 15.0 15.0 15.0 15.0 15.0 15.0 15.0 15.0 15.0 15.0 15.0 12.0 15.0 15.0 15.0 15.0 15.0 15.0 15.0 15.0 15.0 15.0 15.0 15.0 15.0 15.0 15.0
15.0 15.0 15.0 15.0 15.0 15.0 15.0 15.0 15.0 15.0 15.0 15.0 15.0 15.0 15.0 15.0 15.0 2.9 15.0 15.0 15.0 15.0 15.0 15.0 15.0 15.0 15.0 15.0 15.0 15.0 15.0 15.0
15.0 15.0 15.0 15.0 15.0 15.0 15.0 15.0 15.0 15.0 15.0 15.0 15.0 15.0 15.0 15.0 15.0 15.0 4.9 13.1 15.0 15.0 15.0 15.0 15.0 15.0 15.0 15.0 15.0 15.0 15.0 15.0
15.0 15.0 15.0 15.0 15.0 15.0 15.0 15.0 15.0 15.0 15.0 15.0 15.0 15.0 15.0 15.0 15.0 15.0 15.0 2.1 15.0 15.0 15.0 15.0 15.0 15.0 15.0 15.0 15.0 15.0 15.0 15.0
15.0 15.0 15.0 15.0 15.0 15.0 15.0 15.0 15.0 15.0 15.0 15.0 15.0 15.0 15.0 15.0 15.0 15.0 15.0 13.9 3.7 15.0 15.0 15.0 15.0 15.0 15.0 15.0 15.0 15.0 15.0 15.0
15.0 15.0 15.0 15.0 15.0 15.0 15.0 15.0 15.0 15.0 15.0 15.0 15.0 15.0 15.0 15.0 15.0 15.0 15.0 15.0 4.7 14.5 15.0 15.0 15.0 15.0 15.0 15.0 15.0 15.0 15.0 15.0
15.0 15.0 15.0 15.0 15.0 15.0 15.0 15.0 15.0 15.0 15.0 15.0 15.0 15.0 15.0 15.0 15.0 15.0 15.0 15.0 15.0 1.3 1.6 15.0 15.0 15.0 15.0 15.0 15.0 15.0 15.0 15.0
15.0 15.0 15.0 15.0 15.0 15.0 15.0 15.0 15.0 15.0 15.0 15.0 15.0 15.0 15.0 15.0 15.0 15.0 14.1 15.0 15.0 15.0 2.0 5.0 15.0 15.0 15.0 15.0 15.0 15.0 15.0 15.0
15.0 15.0 15.0 15.0 15.0 15.0 15.0 11.8 15.0 15.0 15.0 15.0 15.0 15.0 15.0 15.0 15.0 15.0 15.0 9.8 15.0 15.0 1.7 2.3 15.0 13.4 15.0 15.0 15.0 15.0 15.0 15.0
15.0 15.0 15.0 15.0 15.0 15.0 15.0 0.1 9.4 15.0 15.0 15.0 15.0 15.0 15.0 15.0 15.0 15.0 15.0 9.9 11.9 15.0 9.2 0.6 1.8 12.0 15.0 15.0 15.0 15.0 15.0 15.0
15.0 15.0 15.0 15.0 15.0 15.0 15.0 2.1 9.1 15.0 12.6 15.0 15.0 15.0 15.0 15.0 13.3 15.0 15.0 9.1 2.4 15.0 7.6 1.0 1.7 1.9 7.0 15.0 13.3 15.0 15.0 15.0
15.0 15.0 15.0 15.0 15.0 15.0 15.0 6.8 15.0 11.5 15.0 15.0 15.0 15.0 15.0 14.1 15.0 15.0 15.0 10.9 4.7 4.2 13.0 3.8 1.5 1.8 15.0 7.1 14.9 15.0 15.0 15.0
15.0 15.0 15.0 15.0 15.0 15.0 15.0 11.8 15.0 13.7 13.9 15.0 10.6 14.8 15.0 15.0 15.0 15.0 11.8 2.1 6.0 4.1 15.0 15.0 15.0 15.0 15.0 14.2 14.8 15.0 15.0 15.0
15.0 15.0 15.0 15.0 15.0 15.0 15.0 15.0 15.0 15.0 15.0 7.9 3.4 11.5 15.0 10.4 3.5 2.4 7.1 1.9 3.5 8.2 4.8 3.8 12.3 15.0 15.0 15.0 13.3 10.7 13.8 7.7
15.0 15.0 15.0 15.0 15.0 15.0 15.0 15.0 15.0 15.0 15.0 14.2 10.4 5.7 4.3 4.3 5.2 9.0 2.7 6.6 15.0 8.7 15.0 15.0 15.0 15.0 12.9 15.0 4.0 4.1 15.0 15.0
15.0 15.0 15.0 15.0 15.0 15.0 15.0 15.0 15.0 15.0 15.0 15.0 15.0 15.0 10.3 14.2 15.0 5.5 2.8 3.7 2.3 0.6 0.6 1.9 3.5 2.1 0.4 4.0 15.0 14.0 12.1 10.4
15.0 15.0 15.0 15.0 15.0 15.0 15.0 15.0 15.0 15.0 15.0 15.0 15.0 15.0 15.0 15.0 15.0 10.0 9.8 15.0 7.9 14.8 0.9 0.6 0.2 1.3 1.1 0.2 0.1 11.4 14.9 5.9
15.0 15.0 15.0 15.0 15.0 15.0 15.0 15.0 15.0 15.0 15.0 15.0 15.0 15.0 15.0 15.0 15.0 15.0 15.0 15.0 15.0 15.0 15.0 4.6 2.8 3.4 7.0 0.6 0.2 0.7 12.6 15.0
15.0 15.0 15.0 15.0 15.0 15.0 15.0 15.0 15.0 15.0 15.0 15.0 15.0 15.0 14.8 15.0 15.0 15.0 15.0 15.0 15.0 15.0 15.0 15.0 15.0 11.0 12.5 4.0 0.3 0.1 2.1 3.2

GFSFLT1_sfc_vis_147.txt.gz
Visibility
15.0 15.0 15.0 15.0 15.0 15.0 15.0 15.0 15.0 15.0 15.0 15.0 15.0 15.0 15.0 15.0 15.0 15.0 15.0 13.5 4.1 15.0 15.0 15.0 15.0 15.0 15.0 15.0 15.0 15.0 15.0 15.0
15.0 15.0 15.0 15.0 15.0 15.0 15.0 15.0 15.0 15.0 15.0 15.0 15.0 15.0 15.0 15.0 15.0 15.0 15.0 15.0 15.0 15.0 15.0 15.0 15.0 15.0 15.0 15.0 15.0 15.0 15.0 15.0
15.0 15.0 15.0 15.0 15.0 15.0 15.0 15.0 15.0 15.0 15.0 15.0 15.0 15.0 15.0 15.0 15.0 15.0 15.0 15.0 15.0 15.0 15.0 15.0 15.0 15.0 15.0 15.0 15.0 15.0 15.0 15.0
15.0 15.0 15.0 15.0 15.0 15.0 15.0 15.0 15.0 15.0 15.0 15.0 15.0 15.0 15.0 15.0 15.0 15.0 15.0 15.0 15.0 15.0 2.2 2.3 13.7 15.0 15.0 15.0 15.0 15.0 15.0 15.0
15.0 15.0 15.0 15.0 15.0 15.0 15.0 15.0 15.0 15.0 15.0 15.0 15.0 15.0 15.0 15.0 15.0 15.0 15.0 15.0 15.0 15.0 15.0 2.1 10.5 15.0 15.0 15.0 15.0 15.0 15.0 15.0
15.0 15.0 15.0 15.0 15.0 15.0 15.0 15.0 15.0 15.0 15.0 15.0 15.0 15.0 15.0 15.0 15.0 15.0 15.0 15.0 15.0 15.0 15.0 15.0 4.8 14.2 15.0 15.0 15.0 15.0 15.0 15.0
15.0 15.0 15.0 15.0 15.0 15.0 15.0 15.0 15.0 15.0 15.0 15.0 15.0 15.0 15.0 15.0 15.0 15.0 15.0 15.0 15.0 15.0 15.0 15.0 15.0 0.9 3.3 15.0 15.0 15.0 15.0 15.0
15.0 15.0 15.0 15.0 15.0 15.0 15.0 15.0 15.0 15.0 15.0 15.0 15.0 15.0 15.0 15.0 15.0 15.0 15.0 15.0 15.0 15.0 15.0 15.0 15.0 2.8 1.6 10.3 15.0 15.0 15.0 15.0
15.0 15.0 15.0 15.0 15.0 15.0 15.0 15.0 15.0 15.0 15.0 15.0 15.0 15.0 15.0 15.0 15.0 15.0 15.0 15.0 15.0 15.0 7.1 11.0 13.1 14.9 1.3 3.7 15.0 15.0 15.0 15.0
15.0 15.0 15.0 15.0 15.0 15.0 15.0 15.0 15.0 15.0 15.0 15.0 15.0 15.0 15.0 15.0 15.0 15.0 6.9 15.0 14.6 15.0 15.0 15.0 13.2 15.0 6.3 3.0 3.4 13.2 15.0 15.0
15.0 15.0 15.0 15.0 15.0 15.0 15.0 15.0 15.0 6.4 15.0 9.8 15.0 15.0 14.6 15.0 15.0 15.0 7.0 12.6 15.0 15.0 15.0 15.0 9.3 9.4 15.0 1.1 1.6 15.0 11.8 15.0
15.0 15.0 15.0 15.0 15.0 15.0 15.0 15.0 15.0 15.0 15.0 10.9 10.8 15.0 12.9 11.7 14.8 15.0 6.4 4.2 15.0 15.0 15.0 15.0 14.3 2.9 7.9 1.0 0.7 3.5 2.0 15.0
15.0 15.0 15.0 15.0 15.0 15.0 15.0 15.0 15.0 15.0 15.0 15.0 14.9 14.0 9.5 7.1 14.7 15.0 15.0 15.0 8.7 15.0 15.0 15.0 15.0 14.4 15.0 2.0 5.6 2.4 2.3 15.0
15.0 15.0 15.0 15.0 15.0 15.0 15.0 15.0 15.0 15.0 15.0 15.0 15.0 9.8 15.0 12.3 4.8 7.9 14.9 15.0 15.0 15.0 15.0 15.0 15.0 7.4 15.0 15.0 2.0 0.5 2.3 9.8
15.0 15.0 15.0 15.0 15.0 15.0 15.0 15.0 15.0 15.0 15.0 15.0 15.0 15.0 15.0 11.5 3.3 4.4 2.9 10.9 15.0 15.0 15.0 15.0 2.9 15.0 10.1 4.9 5.5 1.4 2.6 14.3
15.0 15.0 15.0 15.0 15.0 15.0 15.0 15.0 15.0 15.0 15.0 15.0 15.0 15.0 15.0 15.0 15.0 13.6 2.9 3.3 2.0 3.1 12.5 7.1 5.5 4.2 7.2 0.2 0.1 2.6 2.6 5.6
15.0 15.0 15.0 15.0 15.0 15.0 15.0 15.0 15.0 15.0 15.0 15.0 15.0 15.0 15.0 15.0 15.0 15.0 15.0 15.0 8.6 3.9 15.0 15.0 15.0 15.0 15.0 14.9 0.1 2.2 3.6 8.6
15.0 15.0 15.0 15.0 15.0 15.0 15.0 15.0 15.0 15.0 15.0 15.0 15.0 15.0 15.0 15.0 15.0 15.0 15.0 15.0 15.0 5.8 9.9 15.0 15.0 4.3 12.9 15.0 1.2 0.4 2.5 12.9
15.0 15.0 15.0 15.0 15.0 15.0 15.0 15.0 15.0 15.0 15.0 15.0 15.0 15.0 15.0 15.0 15.0 15.0 15.0 15.0 15.0 15.0 15.0 15.0 15.0 12.5 15.0 15.0 0.3 0.1 0.2 0.9

GFSFLT1_sfc_vis_150.txt.gz
Visibility
15.0 15.0 15.0 15.0 15.0 15.0 15.0 15.0 15.0 15.0 15.0 15.0 15.0 15.0 15.0 15.0 15.0 15.0 15.0 15.0 15.0 15.0 12.3 9.5 14.7 14.9 15.0 15.0 15.0 15.0 15.0 15.0
15.0 15.0 15.0 15.0 15.0 15.0 15.0 15.0 15.0 15.0 15.0 15.0 15.0 15.0 15.0 15.0 15.0 15.0 15.0 15.0 15.0 15.0 15.0 15.0 15.0 15.0 15.0 15.0 15.0 15.0 15.0 15.0
15.0 15.0 15.0 15.0 15.0 15.0 15.0 15.0 15.0 15.0 15.0 15.0 15.0 15.0 15.0 15.0 15.0 15.0 15.0 15.0 15.0 15.0 15.0 15.0 15.0 2.2 5.3 15.0 15.0 15.0 15.0 15.0
15.0 15.0 15.0 15.0 15.0 15.0 15.0 15.0 15.0 15.0 15.0 15.0 15.0 15.0 15.0 15.0 15.0 15.0 15.0 15.0 15.0 15.0 15.0 15.0 15.0 4.6 1.8 15.0 9.8 15.0 15.0 15.0
15.0 15.0 15.0 15.0 15.0 15.0 15.0 15.0 15.0 15.0 15.0 15.0 15.0 15.0 15.0 15.0 15.0 15.0 15.0 15.0 15.0 15.0 15.0 15.0 15.0 15.0 5.4 5.6 15.0 15.0 15.0 15.0
15.0 15.0 15.0 15.0 15.0 15.0 15.0 15.0 15.0 15.0 15.0 15.0 15.0 15.0 15.0 15.0 15.0 15.0 15.0 15.0 15.0 15.0 15.0 15.0 15.0 9.6 15.0 7.8 3.7 6.1 15.0 11.9
15.0 15.0 15.0 15.0 15.0 15.0 15.0 15.0 15.0 15.0 15.0 15.0 15.0 15.0 15.0 15.0 15.0 15.0 15.0 15.0 15.0 15.0 15.0 15.0 15.0 15.0 13.5 9.3 3.5 5.5 15.0 15.0
15.0 15.0 15.0 15.0 15.0 15.0 15.0 15.0 15.0 15.0 15.0 15.0 15.0 15.0 15.0 15.0 15.0 15.0 15.0 15.0 15.0 15.0 15.0 15.0 15.0 15.0 15.0 14.4 5.4 0.6 6.3 4.4
15.0 15.0 15.0 15.0 15.0 15.0 15.0 15.0 15.0 15.0 15.0 15.0 15.0 15.0 15.0 15.0 15.0 15.0 15.0 15.0 15.0 15.0 15.0 15.0 15.0 15.0 15.0 15.0 15.0 5.7 2.7 12.3
15.0 15.0 15.0 15.0 15.0 15.0 15.0 15.0 15.0 15.0 15.0 15.0 15.0 15.0 15.0 15.0 15.0 15.0 14.9 15.0 15.0 15.0 15.0 15.0 15.0 13.4 15.0 15.0 15.0 15.0 1.9 1.9
15.0 15.0 15.0 15.0 15.0 15.0 15.0 15.0 15.0 15.0 15.0 15.0 15.0 15.0 15.0 15.0 13.5 10.8 14.6 15.0 15.0 15.0 15.0 15.0 15.0 8.4 15.0 15.0 15.0 15.0 15.0 0.9
15.0 15.0 15.0 15.0 15.0 15.0 15.0 15.0 15.0 15.0 15.0 15.0 15.0 15.0 15.0 15.0 7.6 5.3 2.6 13.7 14.8 15.0 15.0 7.7 6.6 15.0 15.0 15.0 15.0 15.0 15.0 15.0
15.0 15.0 15.0 15.0 15.0 15.0 15.0 15.0 15.0 15.0 15.0 15.0 15.0 15.0 15.0 15.0 9.1 14.8 4.2 4.6 9.0 15.0 14.5 15.0 15.0 15.0 15.0 15.0 15.0 15.0 15.0 15.0
15.0 15.0 15.0 15.0 15.0 15.0 15.0 15.0 15.0 15.0 15.0 15.0 15.0 15.0 15.0 15.0 15.0 13.6 14.4 3.7 11.2 10.1 15.0 9.5 14.6 15.0 15.0 15.0 15.0 15.0 15.0 14.3
15.0 15.0 15.0 15.0 15.0 15.0 15.0 15.0 15.0 15.0 15.0 15.0 15.0 15.0 15.0 15.0 15.0 15.0 9.0 6.8 7.0 3.4 5.5 13.2 8.5 11.4 13.6 15.0 15.0 15.0 15.0 15.0
15.0 15.0 15.0 15.0 15.0 15.0 15.0 15.0 15.0 15.0 15.0 15.0 15.0 15.0 15.0 15.0 15.0 15.0 15.0 12.6 9.0 14.6 6.0 3.4 4.6 5.9 13.5 4.1 15.0 15.0 15.0 15.0
15.0 15.0 15.0 15.0 15.0 15.0 15.0 15.0 15.0 15.0 15.0 15.0 15.0 15.0 15.0 15.0 15.0 15.0 15.0 15.0 9.7 11.2 10.0 10.8 6.0 6.5 0.8 8.1 0.2 2.6 15.0 15.0
15.0 15.0 15.0 15.0 15.0 15.0 15.0 15.0 15.0 15.0 15.0 15.0 13.7 15.0 15.0 15.0 15.0 15.0 15.0 11.2 14.3 15.0 4.3 11.6 13.8 14.8 0.1 3.9 1.6 1.8 10.9 14.6
15.0 15.0 15.0 15.0 15.0 15.0 15.0 15.0 15.0 15.0 14.9 15.0 13.3 8.0 15.0 15.0 15.0 15.0 15.0 0.3 5.9 15.0 15.0 8.9 8.0 15.0 0.4 1.6 0.4 0.2 0.2 0.2